Date,TemperatureHighF,TemperatureAvgF,TemperatureLowF,DewpointHighF,DewpointAvgF,DewpointLowF,HumidityHigh,HumidityAvg,HumidityLow,PressureMaxIn,PressureMinIn,WindSpeedMaxMPH,WindSpeedAvgMPH,GustSpeedMaxMPH,PrecipitationSumIn
2013-2-1,38.5,28.0,15.6,8.7,4.3,-14.4,62,39,17,30.04,29.90,22,6,22,0.00
2013-2-2,44.4,27.4,14.5,10.2,3.0,-6.4,55,39,15,30.15,30.02,8,2,10,0.00
2013-2-3,43.3,27.4,14.9,9.6,1.8,-8.7,54,37,15,30.12,29.84,10,2,10,0.00
2013-2-4,45.3,27.5,11.3,5.0,-0.7,-8.4,54,34,16,29.92,29.84,14,2,15,0.00
2013-2-5,48.6,28.2,15.4,15.6,7.8,2.0,65,46,20,29.97,29.86,6,2,6,0.00
2013-2-6,44.1,29.3,17.2,18.5,12.0,7.5,73,52,26,29.89,29.77,11,2,11,0.00
2013-2-7,41.4,22.7,9.1,15.5,5.4,-0.3,73,51,22,29.99,29.89,7,2,7,0.00
2013-2-8,38.7,26.0,12.0,20.5,11.0,1.1,74,55,36,29.94,29.65,19,3,19,0.00
2013-2-9,29.1,24.8,18.7,18.9,7.3,-14.5,79,49,20,29.66,29.43,14,4,14,0.00
2013-2-10,31.3,19.7,11.7,11.6,-3.8,-20.9,84,40,18,29.74,29.49,23,3,23,0.00
2013-2-11,19.2,9.9,-1.3,10.8,3.6,-7.1,84,75,57,29.82,29.72,7,2,7,0.00
2013-2-12,31.6,10.9,-4.4,7.0,-1.9,-10.4,78,58,33,29.88,29.80,8,2,8,0.00
2013-2-13,39.6,20.0,4.3,12.0,2.7,-2.9,75,51,26,29.91,29.82,15,2,15,0.04
2013-2-14,35.8,22.0,10.9,10.4,0.7,-8.3,65,43,20,29.98,29.86,14,2,15,0.00
2013-2-15,32.4,20.9,10.4,4.3,-2.7,-8.5,60,38,21,30.10,29.95,19,4,19,0.00
2013-2-16,45.1,25.9,10.0,8.7,2.4,-1.8,63,41,19,30.10,29.93,17,2,20,0.00
2013-2-17,45.3,29.0,14.4,17.9,-4.6,-18.8,75,30,10,29.94,29.60,21,4,21,0.00
2013-2-18,33.1,19.9,5.7,12.5,-5.5,-15.5,74,37,16,29.90,29.63,16,3,16,0.00
2013-2-19,37.9,19.7,3.0,4.8,-6.0,-15.6,50,35,16,29.90,29.65,12,2,12,0.00
2013-2-20,34.3,22.2,13.1,21.0,10.5,-0.5,87,63,38,29.66,29.47,8,1,8,0.00
2013-2-21,33.8,20.2,7.0,19.8,12.4,0.8,87,73,45,29.69,29.47,4,0,4,0.05
2013-2-22,26.6,13.7,1.8,13.7,3.8,-3.6,80,66,41,29.74,29.67,0,0,0,0.00
2013-2-24,19.2,7.1,0.5,5.7,-0.8,-5.1,77,70,53,29.81,29.73,8,0,8,0.00
2013-2-25,37.0,14.5,-2.6,10.3,1.3,-8.0,80,59,30,29.83,29.71,8,2,8,0.06
2013-2-26,26.8,15.6,3.2,11.8,2.9,-8.5,72,57,44,29.87,29.62,15,1,15,0.01
2013-2-27,30.4,11.8,-2.9,0.0,-7.0,-12.1,65,45,21,29.99,29.87,11,2,11,0.00
2013-2-28,36.7,18.5,-0.8,7.9,-3.3,-12.6,67,41,21,30.05,29.94,19,4,19,0.01